Hovedside
METAR-TAF:

METAR-TAF

Lufthavner :

Flystasjon

Ismaïlia, Egypt

breddegrad: 30-35-54N, lengdegrad: 032-14-13E, høyde over havet: 13 m

Gjeldene værobservasjon

Denne rapporten ble laget for 24 minutter siden, klokken 05:00 UTC
Flau vind
Temperatur 25°C
Luftfuktighet 74%
Trykk 1009 hPa
Sikt 10 km eller mer
ingen skyer under 1500 m og ingen bygeskyer

METAR: HEIS 170500Z 00000KT CAVOK 25/20 Q1009

Tid: 07:24 (05:24 UTC)


TAF: fraværende

Værobservasjoner og værvarsel for over 4000 flyplasser (METAR- og TAF-rapporter).

Tilgjengelige stasjoner er representert av de røde og gule prikkene på kartet.

Hold musepekeren over prikken for å se navnet på stasjonen.

Klikk så for å se værobservasjoner og -varsler.

For å forandre kartet kan du klikke på den grønne knappen med svart kryss for å zoome inn, på den grønne knappen med strek for å zoome ut, eller på de grønne pilene for å se tilstøtende kart.


METAR-TAF: